When you browse on this site, cookies collect data to enhance your experience and personalize the content and advertising you see.
Visit our Privacy Policy to learn more. By continuing to use the site, you agree to this use of cookies and data.
  • In United Kingdom
  • List of Countries
  • For 7 days
  • Water Temperature
  • Satellite Maps
  • Weather Map
  • Weather Widgets
  • user-avatar
    Login

    Hourly Weather Darwin

    Today, 24 July, Wednesday

    Time Temperature Precipitation Wind Pressure Humidity
    00:00 +20°C° 0 mm 2 mps 761 mmHg 66%
    01:00 +19°C° 0 mm 2 mps 761 mmHg 68%
    02:00 +18°C° 0 mm 2 mps 760 mmHg 71%
    03:00 +19°C° 0 mm 1 mps 760 mmHg 84%
    04:00 +17°C° 0 mm 2 mps 760 mmHg 77%
    05:00 +16°C° 0 mm 3 mps 760 mmHg 69%
    06:00 +15°C° 0 mm 4 mps 760 mmHg 62%
    07:00 +19°C° 0 mm 4 mps 761 mmHg 50%
    08:00 +21°C° 0 mm 5 mps 761 mmHg 38%
    09:00 +26°C° 0 mm 5 mps 761 mmHg 26%
    10:00 +28°C° 0 mm 5 mps 761 mmHg 24%
    11:00 +30°C° 0 mm 5 mps 761 mmHg 22%
    12:00 +33°C° 0 mm 5 mps 761 mmHg 20%
    13:00 +34°C° 0 mm 4 mps 760 mmHg 20%
    14:00 +35°C° 0 mm 4 mps 759 mmHg 20%
    15:00 +36°C° 0 mm 3 mps 759 mmHg 20%
    16:00 +33°C° 0 mm 3 mps 759 mmHg 27%
    17:00 +29°C° 0 mm 2 mps 759 mmHg 34%
    18:00 +26°C° 0 mm 2 mps 759 mmHg 41%
    19:00 +25°C° 0 mm 2 mps 760 mmHg 46%
    20:00 +23°C° 0 mm 1 mps 760 mmHg 52%
    21:00 +22°C° 0 mm 1 mps 761 mmHg 57%
    22:00 +22°C° 0 mm 1 mps 761 mmHg 58%
    23:00 +21°C° 0 mm 1 mps 761 mmHg 60%

    Tomorrow, 25 July, Thursday

    Time Temperature Precipitation Wind Pressure Humidity
    00:00 +20°C° 0 mm 2 mps 761 mmHg 61%
    01:00 +20°C° 0 mm 2 mps 761 mmHg 63%
    02:00 +20°C° 0 mm 2 mps 761 mmHg 66%
    03:00 +19°C° 0 mm 2 mps 761 mmHg 68%
    04:00 +19°C° 0 mm 2 mps 761 mmHg 68%
    05:00 +19°C° 0 mm 2 mps 761 mmHg 69%
    06:00 +18°C° 0 mm 3 mps 761 mmHg 69%
    07:00 +21°C° 0 mm 3 mps 761 mmHg 63%
    08:00 +24°C° 0 mm 3 mps 762 mmHg 57%
    09:00 +26°C° 0 mm 4 mps 762 mmHg 51%
    10:00 +29°C° 0 mm 3 mps 761 mmHg 46%
    11:00 +31°C° 0 mm 3 mps 761 mmHg 42%
    12:00 +35°C° 0 mm 2 mps 760 mmHg 37%
    13:00 +34°C° 0 mm 2 mps 760 mmHg 38%
    14:00 +34°C° 0 mm 3 mps 759 mmHg 39%
    15:00 +34°C° 0 mm 3 mps 759 mmHg 40%
    16:00 +31°C° 0 mm 3 mps 759 mmHg 48%
    17:00 +29°C° 0 mm 2 mps 759 mmHg 56%
    18:00 +27°C° 0 mm 2 mps 758 mmHg 64%
    19:00 +25°C° 0 mm 2 mps 759 mmHg 70%
    20:00 +24°C° 0 mm 2 mps 760 mmHg 76%
    21:00 +23°C° 0 mm 2 mps 761 mmHg 82%
    22:00 +21°C° 0 mm 2 mps 761 mmHg 83%
    23:00 +21°C° 0 mm 2 mps 761 mmHg 83%

    Day after tomorrow, 26 July, Friday

    Time Temperature Precipitation Wind Pressure Humidity
    00:00 +22°C° 0 mm 1 mps 761 mmHg 83%
    01:00 +22°C° 0 mm 1 mps 760 mmHg 85%
    02:00 +22°C° 0 mm 1 mps 760 mmHg 86%
    03:00 +22°C° 0 mm 1 mps 760 mmHg 88%
    04:00 +21°C° 0 mm 2 mps 760 mmHg 90%
    05:00 +20°C° 0 mm 3 mps 760 mmHg 93%
    06:00 +20°C° 0 mm 4 mps 760 mmHg 95%
    07:00 +22°C° 0 mm 4 mps 760 mmHg 83%
    08:00 +23°C° 0 mm 4 mps 761 mmHg 71%
    09:00 +26°C° 0 mm 5 mps 761 mmHg 59%
    10:00 +28°C° 0 mm 4 mps 761 mmHg 50%
    11:00 +32°C° 0 mm 4 mps 760 mmHg 40%
    12:00 +34°C° 0 mm 3 mps 759 mmHg 31%
    13:00 +35°C° 0 mm 4 mps 759 mmHg 30%
    14:00 +35°C° 0 mm 4 mps 758 mmHg 29%
    15:00 +36°C° 0 mm 4 mps 758 mmHg 28%
    16:00 +33°C° 0 mm 4 mps 758 mmHg 37%
    17:00 +29°C° 0 mm 4 mps 758 mmHg 46%
    18:00 +27°C° 0 mm 3 mps 758 mmHg 55%
    19:00 +25°C° 0 mm 3 mps 758 mmHg 61%
    20:00 +23°C° 0 mm 2 mps 759 mmHg 66%
    21:00 +21°C° 0 mm 2 mps 760 mmHg 72%
    22:00 +21°C° 0 mm 2 mps 760 mmHg 75%
    23:00 +20°C° 0 mm 2 mps 760 mmHg 79%

    27 July, Saturday

    Time Temperature Precipitation Wind Pressure Humidity
    00:00 +20°C° 0 mm 2 mps 761 mmHg 82%
    01:00 +20°C° 0 mm 2 mps 760 mmHg 85%
    02:00 +20°C° 0 mm 2 mps 760 mmHg 87%
    03:00 +20°C° 0 mm 2 mps 760 mmHg 90%
    04:00 +20°C° 0 mm 2 mps 760 mmHg 92%
    05:00 +19°C° 0 mm 2 mps 760 mmHg 93%
    06:00 +19°C° 0 mm 3 mps 760 mmHg 95%
    07:00 +21°C° 0 mm 3 mps 761 mmHg 82%
    08:00 +24°C° 0 mm 3 mps 761 mmHg 70%
    09:00 +26°C° 0 mm 3 mps 762 mmHg 58%
    10:00 +29°C° 0 mm 3 mps 761 mmHg 49%
    11:00 +31°C° 0 mm 3 mps 761 mmHg 40%
    12:00 +34°C° 0 mm 2 mps 760 mmHg 31%
    13:00 +35°C° 0 mm 3 mps 759 mmHg 31%
    14:00 +35°C° 0 mm 4 mps 759 mmHg 31%
    15:00 +35°C° 0 mm 4 mps 758 mmHg 32%
    16:00 +33°C° 0 mm 4 mps 758 mmHg 40%
    17:00 +29°C° 0 mm 3 mps 758 mmHg 49%
    18:00 +27°C° 0 mm 2 mps 758 mmHg 58%
    19:00 +25°C° 0 mm 2 mps 759 mmHg 64%
    20:00 +24°C° 0 mm 2 mps 760 mmHg 70%
    21:00 +21°C° 0 mm 2 mps 760 mmHg 76%
    22:00 +21°C° 0 mm 2 mps 760 mmHg 79%
    23:00 +20°C° 0 mm 2 mps 761 mmHg 82%

    28 July, Sunday

    Time Temperature Precipitation Wind Pressure Humidity
    00:00 +20°C° 0 mm 2 mps 761 mmHg 85%
    01:00 +20°C° 0 mm 2 mps 761 mmHg 87%
    02:00 +20°C° 0 mm 2 mps 760 mmHg 89%
    03:00 +20°C° 0 mm 3 mps 760 mmHg 92%
    04:00 +20°C° 0 mm 3 mps 760 mmHg 93%
    05:00 +20°C° 0 mm 3 mps 761 mmHg 94%
    06:00 +20°C° 0 mm 3 mps 761 mmHg 95%
    07:00 +22°C° 0 mm 3 mps 761 mmHg 83%
    08:00 +25°C° 0 mm 3 mps 761 mmHg 71%
    09:00 +27°C° 0 mm 4 mps 762 mmHg 58%
    10:00 +29°C° 0 mm 3 mps 761 mmHg 49%
    11:00 +31°C° 0 mm 3 mps 761 mmHg 39%
    12:00 +35°C° 0 mm 3 mps 760 mmHg 29%
    13:00 +35°C° 0 mm 3 mps 760 mmHg 28%
    14:00 +36°C° 0 mm 4 mps 759 mmHg 27%
    15:00 +36°C° 0 mm 4 mps 758 mmHg 26%
    16:00 +33°C° 0 mm 4 mps 758 mmHg 36%
    17:00 +29°C° 0 mm 3 mps 758 mmHg 46%
    18:00 +26°C° 0 mm 3 mps 758 mmHg 56%
    19:00 +25°C° 0 mm 2 mps 759 mmHg 62%
    20:00 +24°C° 0 mm 2 mps 759 mmHg 68%
    21:00 +21°C° 0 mm 2 mps 760 mmHg 74%
    22:00 +22°C° 0 mm 1 mps 760 mmHg 78%
    23:00 +21°C° 0 mm 1 mps 760 mmHg 82%

    29 July, Monday

    Time Temperature Precipitation Wind Pressure Humidity
    00:00 +21°C° 0 mm 1 mps 761 mmHg 85%
    01:00 +21°C° 0 mm 1 mps 760 mmHg 86%
    02:00 +21°C° 0 mm 1 mps 760 mmHg 86%
    03:00 +21°C° 0 mm 1 mps 760 mmHg 87%
    04:00 +20°C° 0 mm 2 mps 760 mmHg 89%
    05:00 +20°C° 0 mm 2 mps 760 mmHg 91%
    06:00 +20°C° 0 mm 2 mps 760 mmHg 93%
    07:00 +23°C° 0 mm 2 mps 761 mmHg 83%
    08:00 +25°C° 0 mm 3 mps 761 mmHg 73%
    09:00 +27°C° 0 mm 3 mps 762 mmHg 63%
    10:00 +30°C° 0 mm 3 mps 761 mmHg 53%
    11:00 +33°C° 0 mm 3 mps 761 mmHg 43%
    12:00 +35°C° 0 mm 3 mps 760 mmHg 33%
    13:00 +35°C° 0 mm 3 mps 759 mmHg 32%
    14:00 +36°C° 0 mm 3 mps 758 mmHg 31%
    15:00 +36°C° 0 mm 4 mps 757 mmHg 31%
    16:00 +33°C° 0 mm 3 mps 758 mmHg 40%
    17:00 +30°C° 0 mm 3 mps 758 mmHg 48%
    18:00 +27°C° 0 mm 2 mps 758 mmHg 57%
    19:00 +25°C° 0 mm 2 mps 759 mmHg 66%
    20:00 +24°C° 0 mm 2 mps 759 mmHg 76%
    21:00 +22°C° 0 mm 1 mps 760 mmHg 86%
    22:00 +22°C° 0 mm 1 mps 760 mmHg 86%
    23:00 +22°C° 0 mm 1 mps 760 mmHg 87%
    Show more